Location: Gorze? G�rny
(49.8500°N, 19.5000°E)
Time: 04:13:33
(UTC+00:00)

Okean 1-7 - Pass Details

Date: 13 May 2021
Orbit: 591 x 617 km, 82.5° (Epoch: 23 June)

Event Time Altitude Azimuth Distance (km) Brightness Sun altitude
Exits shadow 21:19:08 25° 100° (E) 1,209 4.3 -19.3°
Maximum altitude 21:19:37 26° 88° (E) 1,192 4.3 -19.4°
Drops below altitude 10° 21:23:10 10° 32° (NNE) 1,948 6.1 -19.5°
Sets 21:25:40 0° 20° (NNE) 2,861 7.3 -19.7°
